sat.trackr.live / text

‹ back to catalog

STARLINK-32456

NORAD 62041 · 2024-216K

PAYLOAD ACTIVE UNKNOWN

§ Identity

Operator
Country
US
Launch date
2024-11-21
Launch site
AFETR
Launch vehicle
Mass (kg)
RCS (m²)

Purposes: comms

External: N2YO · Heavens-Above · Gunter

§ Orbital elements

Epoch: 2026-09-21T14:14:35.114208Z

Period
94.27 min
Inclination
42.9979°
Eccentricity
0.0001308
Mean motion
15.27578183 rev/d
Perigee alt
482.2 km
Apogee alt
484.0 km
Semi-major
6,861.2 km
B*
3.1153e-4
RAAN
230.2143°
Arg perigee
261.2499°
Mean anomaly
98.8205°
Rev number
10,383

§ Raw data

STARLINK-324561 62041U 24216K   26264.59346197  .00008320  00000+0  31153-3 0  99902 62041  42.9979 230.2143 0001308 261.2499  98.8205 15.27578183103839

JSON: /api/v1/satellites/62041 · /tle

For live sub-satellite position, see the globe view (requires WebGL).

§ Visibility from observer

Set your observer location to see the next 7 days of passes ≥ 10°. The values pass through the URL so the page stays shareable.

No JS? Fill the form by hand. The geolocation button needs JavaScript.